STARLINK-32131, 60153

Orbit data source: Space-Track

STARLINK-32131, 60153 is a payload satellite owned by SpaceX/Seattle (US) in LEO that was launched on Thu, 27 Jun 2024 UTC via an FALCON 9 launch vehicle from the Air Force Eastern Test Range (AFETR). Payload-class satellites include a variety of spacecraft equipped with specific instruments for various scientific and technological missions. These include communications satellites like Starlink; space stations such as the ISS; scientific satellites like the Hubble; Earth observation satellites from companies like Planet Labs, Umbra, and HawkEye 360; GPS; miniature CubeSats for education and research; and military/defense satellites.

Loading next visibility...
Identifier
60153, 2024-120U
Orbit
LEO
Country
Flag of USUS
Related business
Manufacturer
SpaceX/Seattle
Mission
Operational Commercial Communications
Bus & Motor
STARLINK V2M, Unknown motor
Mass
730 kg wet, ~700 kg dry
Launch date (UTC)
2024-06-27 (2 years ago)
Launch vehicle
FALCON 9
Launch site
Air Force Eastern Test Range (AFETR)
Object type
Payload
Rocket body
Debris
Shape & HBR
Box + 2 Pan, 17.7 m
Radar Cross Section
33.884 m², Large (>1 m²)

Expand to show TLE details & history
Last TLE update: 12 hours ago

TLE from 12 hours ago
0 STARLINK-32131
1 60153U 24120U   26171.40106892  .00001517  00000-0  56042-4 0  9996
2 60153  53.1596 201.9975 0001099  85.2559 274.8569 15.34390470112193
Epoch: 2026-06-20T09:37Z
TLE epoch observation values (Epoch: 2026-06-20T09:37:32.354Z)
Latitude
-0.00004°
Longitude
148.99644°
Altitude
463.569 km
Speed
7.636 km/s
True Right ascension
13h 27m 59s
True Declination
0° 00' 00"
Sunlit
Object was in partial shadow at epoch
Visualization orbit readout
Latitude
Unknown
Longitude
Unknown
Altitude
Unknown
Speed
Unknown
Apparent Right ascension
Unknown
Apparent Declination
Unknown
Sunlit
N/A
Visualization observer readout
Local Sidereal Time
08:32:54
Azimuth
Unknown
Elevation
Unknown
Doppler factor
Unknown
Orbital elements
Apogee altitude
463.74 km
Perigee altitude
462.237 km
Semi-major axis
6,841.126 km
Eccentricity
0.00011
Inclination
53.1596°
RAAN
201.9975°
Arg. of periapsis
85.2559°
True anomaly
274.84435°
Mean anomaly
274.8569°
Eccentric anomaly
274.85063°
Mean motion
3.83576 °/min
Orbital period
93.85 mins
BSTAR
0.000056042
Loading maneuver chart data...
Computing Atmospheric mass density...
Loading historical data...
Loading historical data...
Loading historical data...
Loading historical data...
Loading historical data...
Loading historical data...
Loading historical data...

Documentation

Showing up to 5 results
|